EW1343 Weather Reports


Display with metric or nautical units.
time (UTC)temp
F
wind
direction
speed
MPH
gust
MPH
rain 1hr
in
rain 24hr
in
rain mn
in
humidity
%
barometer
mb
20260503004556 0 251 0.0 5.0 0.00 0.02 0.00 1011.7
20260503003051 0 244 0.0 2.0 0.00 0.02 0.00 1011.8
20260503001546 0 265 1.0 5.0 0.00 0.02 0.00 1011.8
20260503000043 0 266 0.0 5.0 0.00 0.02 0.00 1011.9
20260502234538 0 301 0.0 1.0 0.00 0.02 0.00 1011.9
20260502233036 0 273 0.0 3.0 0.00 0.02 0.00 1011.9
20260502231531 0 271 0.0 2.0 0.00 0.02 0.00 1011.9
20260502230024 0 283 0.0 0.0 0.00 0.02 0.00 1011.8
20260502224520 0 283 0.0 0.0 0.00 0.02 0.00 1011.9
20260502223016 0 283 0.0 0.0 0.00 0.02 0.00 1012.0
20260502221510 0 296 0.0 2.0 0.00 0.02 0.00 1012.0
20260502220010 0 248 0.0 0.0 0.00 0.02 0.00 1011.9
20260502214501 0 252 0.0 0.0 0.00 0.02 0.02 1011.9
20260502213057 0 280 0.0 4.0 0.00 0.02 0.02 1011.8
20260502211553 0 218 2.0 6.0 0.00 0.02 0.02 1011.9
20260502210058 0 240 2.0 7.0 0.00 0.02 0.02 1011.9
20260502204543 0 276 1.0 5.0 0.00 0.02 0.02 1011.9
20260502203038 0 243 0.0 3.0 0.00 0.02 0.02 1011.9
20260502201536 0 225 1.0 5.0 0.00 0.02 0.02 1011.9
20260502200032 0 293 0.0 1.0 0.00 0.02 0.02 1011.6
20260502194526 0 287 0.0 0.0 0.00 0.02 0.02 1011.7
20260502193021 0 264 0.0 0.0 0.00 0.02 0.02 1011.5
20260502191522 0 250 0.0 4.0 0.00 0.02 0.02 1011.3
20260502190025 0 240 0.0 6.0 0.00 0.02 0.02 1011.3
20260502184512 0 286 1.0 6.0 0.00 0.02 0.02 1011.2
20260502183004 0 270 0.0 3.0 0.00 0.02 0.02 1011.1
20260502181559 0 277 0.0 0.0 0.00 0.02 0.02 1011.2
20260502180121 0 264 0.0 3.0 0.00 0.02 0.02 1011.1
20260502163028 0 236 0.0 2.0 0.00 0.02 0.02 1011.2
20260502161523 0 230 1.0 5.0 0.00 0.02 0.02 1011.4
20260502151506 0 267 0.0 0.0 0.00 0.02 0.02 1011.6
20260502123017 0 277 1.0 7.0 0.01 0.01 0.01 1012.7
20260502121516 0 271 0.0 3.0 0.01 0.01 0.01 1012.9
20260502114506 0 5 0.0 3.0 0.00 0.00 0.00 1012.9
20260502113100 0 360 0.0 0.0 0.00 0.00 0.00 1012.9
20260502111601 0 360 0.0 2.0 0.00 0.00 0.00 1012.8
20260502110053 0 130 0.0 4.0 0.00 0.00 0.00 1012.7
20260502104548 0 47 0.0 1.0 0.00 0.00 0.00 1012.6
20260502103051 0 44 0.0 0.0 0.00 0.00 0.00 1013.2
20260502101600 0 360 0.0 0.0 0.00 0.00 0.00 1013.3
20260502091520 0 360 0.0 4.0 0.00 0.00 0.00 1013.8
20260502080108 0 360 0.0 3.0 0.00 0.00 0.00 1013.7
20260502070040 0 360 0.0 0.0 0.00 0.00 0.00 1013.9
20260502064540 0 360 0.0 0.0 0.00 0.00 0.00 1013.9
20260502063032 0 360 0.0 3.0 0.00 0.00 0.00 1014.0
20260502061527 0 360 0.0 5.0 0.00 0.00 0.00 1013.9
20260502060024 0 360 0.0 4.0 0.00 0.00 0.00 1013.9
20260502054519 0 360 0.0 0.0 0.00 0.00 0.00 1014.1
20260502053014 0 360 0.0 0.0 0.00 0.00 0.00 1014.1
20260502051510 0 57 0.0 0.0 0.00 0.00 0.00 1014.2
20260502050007 0 58 0.0 4.0 0.00 0.00 0.00 1014.3
20260502044502 0 360 1.0 6.0 0.00 0.00 0.00 1014.3
20260502043112 0 360 0.0 0.0 0.00 0.00 0.00 1014.8
20260502041552 0 360 0.0 3.0 0.00 0.00 0.00 1015.0
20260502040049 0 360 0.0 3.0 0.00 0.00 0.00 1015.0
20260502034543 0 90 0.0 4.0 0.00 0.00 0.00 1015.0
20260502033042 0 119 0.0 3.0 0.00 0.00 0.00 1015.2
20260502031536 0 144 0.0 3.0 0.00 0.00 0.00 1015.4
20260502030030 0 360 1.0 5.0 0.00 0.00 0.00 1015.5
20260502024526 0 360 0.0 7.0 0.00 0.00 0.00 1015.8
20260502023021 0 360 0.0 2.0 0.00 0.00 0.00 1016.0
20260502021516 0 360 0.0 2.0 0.00 0.00 0.00 1016.2
20260502020017 0 360 0.0 3.0 0.00 0.00 0.00 1016.4
20260502014508 0 119 0.0 7.0 0.00 0.00 0.00 1016.7
20260502013003 0 360 1.0 7.0 0.00 0.00 0.00 1017.0
20260502011700 0 360 2.0 5.0 0.00 0.00 0.00 1017.2
20260502010055 0 53 2.0 7.0 0.00 0.00 0.00 1017.3